Regional Weather Roundup
Issued by NWS

Home | Current Version | Previous Version | Graphics & Text | Print | Product List | Glossary On
Versions: 1 2 3 4 5 6 7 8 9 10 11 12 13 14 15 16 17 18 19 20 21 22 23 24 25 26 27 28 29 30 31 32 33 34 35 36 37 38 39 40 41 42 43 44 45 46 47 48 49 50
000
ASUS43 KIND 180609
RWRIN

WEATHER ROUNDUP FOR INDIANA
NATIONAL WEATHER SERVICE INDIANAPOLIS IN
200 AM EDT SAT APR 18 2015

NOTE: "FAIR" INDICATES FEW OR NO CLOUDS BELOW 12,000 FEET WITH NO
SIGNIFICANT WEATHER AND/OR OBSTRUCTIONS TO VISIBILITY.

* - STATION DOES NOT REPORT WEATHER SUCH AS PRECIPITATION OR FOG.

+ - STATION NOT QUALITY CONTROLLED BY THE NATIONAL WEATHER SERVICE.
    USE DATA WITH CAUTION...ESPECIALLY DEWPOINT AND RELATIVE
    HUMIDITY OBSERVATIONS.

INZ001>003-010>013-019-020-180700-
NORTHWEST INDIANA

CITY           SKY/WX    TMP DP  RH WIND       PRES   REMARKS
GARY /AIRPORT/ FAIR      58  44  60 CALM      30.02S
KNOX *+        FAIR      55  32  41 S5        30.02S
MICHIGAN CITY+ MOCLDY    57  41  54 SW3       30.02S
MONTICELLO +   FAIR      54  51  90 CALM      30.04R
6HR MIN TEMP:  54; 6HR MAX TEMP:  72;

RENSSELAER +   FAIR      57  46  67 CALM      30.04S
VALPARAISO     FAIR      60  45  57 SW5       30.03S
6HR MIN TEMP:  56; 6HR MAX TEMP:  74;


$$

LMZ046-743>745-180700-
SOUTHERN LAKE MICHIGAN

STATION/POSITION TIME  TEMP WIND        PRES
                       AIR  DIR/SP/G
                 (UTC) (F)  (DEG/KT/KT) (MB)
BURNS HARBOR     0600   64  190/  8/  9 1016.9S
MICHIGAN CITY    0600   66  150/ 10/ 11   N/A
4NW MICH CITY    0600   55                N/A

$$

INZ004-005-014>016-021>024-180700-
NORTH CENTRAL INDIANA

CITY           SKY/WX    TMP DP  RH WIND       PRES   REMARKS
GOSHEN         FAIR      54  46  74 S3        30.02S
6HR MIN TEMP:  51; 6HR MAX TEMP:  69;

LOGANSPORT +   FAIR      54  46  76 S3        30.06R
PERU/GRISSOM   FAIR      57  47  71 CALM      30.04R
6HR MIN TEMP:  54; 6HR MAX TEMP:  66;

ROCHESTER +    FAIR      59  54  82 S3        30.05R
SOUTH BEND     FAIR      56  43  61 CALM      30.03S
6HR MIN TEMP:  56; 6HR MAX TEMP:  71;

WARSAW +       FAIR      50  46  87 CALM      30.04R

$$

INZ006>009-017-018-025>027-180700-
NORTHEAST INDIANA

CITY           SKY/WX    TMP DP  RH WIND       PRES   REMARKS
ANGOLA *+      CLEAR     48  45  87 CALM      30.02F
AUBURN +       FAIR      54  45  71 CALM      30.03S
FORT WAYNE     FAIR      52  46  80 SW7       30.04S
6HR MIN TEMP:  52; 6HR MAX TEMP:  70;

HUNTINGTON +   FAIR      53  47  82 CALM      30.04R
6HR MIN TEMP:  52; 6HR MAX TEMP:  70;


$$

INZ028-029-035-036-043>045-051>053-180700-
WEST CENTRAL INDIANA

CITY           SKY/WX    TMP DP  RH WIND       PRES   REMARKS
CRAWFORDSVL +  FAIR      50  45  82 CALM      30.06R
6HR MIN TEMP:  50; 6HR MAX TEMP:  70;

GREENCASTLE +  FAIR      52  45  76 CALM      30.06S
LAFAYETTE      FAIR      53  47  79 CALM      30.04R
6HR MIN TEMP:  52; 6HR MAX TEMP:  71;

TERRE HAUTE    FAIR      55  49  80 CALM      30.05S
6HR MIN TEMP:  55; 6HR MAX TEMP:  73;


$$

INZ030>032-037>040-046>048-054>057-064-065-180700-
CENTRAL INDIANA

CITY           SKY/WX    TMP DP  RH WIND       PRES   REMARKS
CP ATTERBURY + FAIR      48  46  93 CALM      30.07R
FISHERS *+     FAIR      52  46  82 CALM      30.06R
FRANKFORT +    FAIR      52  49  88 CALM      30.07R
6HR MIN TEMP:  51; 6HR MAX TEMP:  73;

GREENWOOD *+   FAIR      55  43  62 CALM      30.06R
INDIANAPOLIS   FAIR      56  46  69 W5        30.04
6HR MIN TEMP:  56; 6HR MAX TEMP:  72;

-EAGLE CREEK   FAIR      57  50  77 CALM      30.05R
6HR MIN TEMP:  55; 6HR MAX TEMP:  72;

KOKOMO *+      FAIR      54  46  76 CALM      30.05R
6HR MIN TEMP:  54; 6HR MAX TEMP:  73;

MARION +       FAIR      53  46  76 CALM      30.05R
MT COMFORT *+  FAIR      54  41  62 CALM      30.06R
SHELBYVILLE    FAIR      57  45  64 CALM      30.05R
6HR MIN TEMP:  54; 6HR MAX TEMP:  73;

ZIONSVILLE +   FAIR      53  47  80 CALM      30.06S
6HR MIN TEMP:  52; 6HR MAX TEMP:  71;


$$

INZ033-034-041-042-049-050-058-059-180700-
EAST CENTRAL INDIANA

CITY           SKY/WX    TMP DP  RH WIND       PRES   REMARKS
MUNCIE         FAIR      54  45  71 CALM      30.05R
6HR MIN TEMP:  53; 6HR MAX TEMP:  71;


$$

INZ060-061-067>069-081>083-085>088-180700-
SOUTHWEST INDIANA

CITY           SKY/WX    TMP DP  RH WIND       PRES   REMARKS
EVANSVILLE     FAIR      60  57  89 CALM      30.04F FOG
6HR MIN TEMP:  60; 6HR MAX TEMP:  75;

HUNTINGBURG *+ FAIR      59  55  88 CALM      30.05S
6HR MIN TEMP:  57; 6HR MAX TEMP:  72;

WASHINGTON +   FAIR      56  53  88 CALM      30.04S
6HR MIN TEMP:  56; 6HR MAX TEMP:  72;


$$

INZ062-063-066-070>080-084-089>092-180700-
SOUTH CENTRAL AND SOUTHEAST INDIANA

CITY           SKY/WX    TMP DP  RH WIND       PRES   REMARKS
BEDFORD +      FAIR      57  48  72 CALM      30.06R
BLOOMINGTON    FAIR      52  49  89 CALM      30.06R
6HR MIN TEMP:  52; 6HR MAX TEMP:  72;

MADISON *+     FAIR      55  50  82 CALM      30.07R
NORTH VERNON + FAIR      52  52 100 CALM      30.07R

$$



USA.gov is the U.S. government's official web portal to all federal, state and local government web resources and services.